CXA259 KIAH-KATL

Flight info

Callsign CXA259
Flight time 1h 23m
Altitude 37000
Route GUMBY3 LCH Q24 PAYTN SHYRE HOBTT3
Aircraft MD11/H-SDE1E2E3FGHIJ1J2J3J4P1RWXY/LB1D1G1

Departure

Time 2026-05-07 18:32
Airport George Bush Intercontinental Airport (KIAH)

Arrival

Time 2026-05-07 19:56
Airport Hartsfield Jackson Atlanta International Airport (KATL)
Time Latitude Longitude Altitude Speed Heading
2026-05-07 16:57 29.99935 -95.31103 109 ft 0 kts 360°
2026-05-07 18:15 29.99917 -95.31104 108 ft 4 kts 360°
2026-05-07 18:15 29.99891 -95.31104 108 ft 4 kts 360°
2026-05-07 18:15 29.99868 -95.31104 107 ft 3 kts 359°
2026-05-07 18:16 29.99850 -95.31102 107 ft 4 kts 312°
2026-05-07 18:16 29.99844 -95.31093 106 ft 4 kts 276°
2026-05-07 18:16 29.99843 -95.31087 106 ft 4 kts 269°
2026-05-07 18:16 29.99843 -95.31118 109 ft 4 kts 269°
2026-05-07 18:17 29.99843 -95.31149 109 ft 4 kts 269°
2026-05-07 18:17 29.99843 -95.31187 109 ft 1 kts 269°
2026-05-07 18:17 29.99843 -95.31188 109 ft 0 kts 269°
2026-05-07 18:21 29.99843 -95.31190 109 ft 1 kts 269°
2026-05-07 18:22 29.99842 -95.31237 109 ft 10 kts 267°
2026-05-07 18:22 29.99811 -95.31282 108 ft 13 kts 208°
2026-05-07 18:22 29.99638 -95.31295 109 ft 24 kts 180°
2026-05-07 18:22 29.99471 -95.31293 109 ft 23 kts 180°
2026-05-07 18:23 29.99314 -95.31292 108 ft 21 kts 180°
2026-05-07 18:23 29.99172 -95.31293 108 ft 19 kts 180°
2026-05-07 18:23 29.99087 -95.31322 106 ft 5 kts 242°
2026-05-07 18:23 29.99082 -95.31368 108 ft 8 kts 266°
2026-05-07 18:24 29.99081 -95.31447 108 ft 12 kts 270°
2026-05-07 18:24 29.99081 -95.31563 109 ft 17 kts 270°
2026-05-07 18:24 29.99082 -95.31714 109 ft 21 kts 270°
2026-05-07 18:24 29.99084 -95.31895 109 ft 25 kts 269°
2026-05-07 18:25 29.99081 -95.32100 110 ft 25 kts 270°
2026-05-07 18:25 29.99081 -95.32289 110 ft 22 kts 270°
2026-05-07 18:25 29.99082 -95.32458 110 ft 20 kts 270°
2026-05-07 18:25 29.99091 -95.32606 110 ft 17 kts 271°
2026-05-07 18:26 29.99091 -95.32735 110 ft 15 kts 269°
2026-05-07 18:26 29.99090 -95.32873 109 ft 20 kts 270°
2026-05-07 18:26 29.99090 -95.33049 109 ft 24 kts 270°
2026-05-07 18:26 29.99091 -95.33258 108 ft 28 kts 270°
2026-05-07 18:27 29.99092 -95.33494 107 ft 29 kts 270°
2026-05-07 18:27 29.99091 -95.33720 107 ft 27 kts 269°
2026-05-07 18:27 29.99090 -95.33928 106 ft 25 kts 270°
2026-05-07 18:27 29.99090 -95.34135 106 ft 28 kts 270°
2026-05-07 18:28 29.99090 -95.34372 108 ft 32 kts 270°
2026-05-07 18:28 29.99090 -95.34623 107 ft 31 kts 270°
2026-05-07 18:28 29.99091 -95.34856 104 ft 28 kts 269°
2026-05-07 18:28 29.99090 -95.35072 106 ft 26 kts 269°
2026-05-07 18:29 29.99089 -95.35268 106 ft 23 kts 270°
2026-05-07 18:29 29.99087 -95.35437 105 ft 15 kts 263°
2026-05-07 18:29 29.99050 -95.35480 104 ft 7 kts 196°
2026-05-07 18:29 29.98991 -95.35484 106 ft 10 kts 177°
2026-05-07 18:30 29.98928 -95.35489 106 ft 7 kts 201°
2026-05-07 18:30 29.98899 -95.35528 104 ft 8 kts 242°
2026-05-07 18:30 29.98869 -95.35597 106 ft 11 kts 242°
2026-05-07 18:30 29.98826 -95.35689 108 ft 13 kts 241°
2026-05-07 18:31 29.98787 -95.35758 112 ft 6 kts 214°
2026-05-07 18:31 29.98749 -95.35761 110 ft 6 kts 164°
2026-05-07 18:31 29.98703 -95.35735 110 ft 11 kts 154°
2026-05-07 18:31 29.98421 -95.35565 109 ft 90 kts 152°
2026-05-07 18:32 29.97610 -95.35066 108 ft 171 kts 152°
2026-05-07 18:32 29.96433 -95.34336 402 ft 208 kts 149°
2026-05-07 18:32 29.95262 -95.33537 1722 ft 177 kts 137°
2026-05-07 18:32 29.94526 -95.32436 2748 ft 175 kts 104°
2026-05-07 18:33 29.94288 -95.31019 3205 ft 187 kts 93°
2026-05-07 18:33 29.94146 -95.29403 3630 ft 219 kts 95°
2026-05-07 18:33 29.93994 -95.27539 3927 ft 242 kts 95°
2026-05-07 18:33 29.93843 -95.25572 3968 ft 248 kts 92°
2026-05-07 18:34 29.93795 -95.23593 3988 ft 261 kts 89°
2026-05-07 18:34 29.93802 -95.21470 3990 ft 268 kts 89°
2026-05-07 18:34 29.93823 -95.19318 3980 ft 269 kts 89°
2026-05-07 18:34 29.93848 -95.17161 3982 ft 269 kts 88°
2026-05-07 18:35 29.93875 -95.15003 3977 ft 269 kts 88°
2026-05-07 18:35 29.93904 -95.12842 3980 ft 270 kts 88°
2026-05-07 18:35 29.93932 -95.10683 4031 ft 267 kts 89°
2026-05-07 18:35 29.93978 -95.08533 4391 ft 270 kts 87°
2026-05-07 18:36 29.94107 -95.06350 4981 ft 271 kts 85°
2026-05-07 18:36 29.94267 -95.04161 6086 ft 277 kts 84°
2026-05-07 18:36 29.94435 -95.01915 7061 ft 284 kts 84°
2026-05-07 18:36 29.94606 -94.99654 7927 ft 291 kts 84°
2026-05-07 18:37 29.94783 -94.97312 8805 ft 298 kts 85°
2026-05-07 18:37 29.94965 -94.94907 9648 ft 305 kts 84°
2026-05-07 18:37 29.95151 -94.92426 10268 ft 322 kts 85°
2026-05-07 18:37 29.95353 -94.89725 10397 ft 355 kts 85°
2026-05-07 18:38 29.95573 -94.86777 10662 ft 380 kts 85°
2026-05-07 18:38 29.95801 -94.83716 11508 ft 386 kts 85°
2026-05-07 18:38 29.96032 -94.80605 12347 ft 393 kts 86°
2026-05-07 18:38 29.96266 -94.77428 13160 ft 400 kts 86°
2026-05-07 18:39 29.96503 -94.74213 13928 ft 406 kts 86°
2026-05-07 18:39 29.96744 -94.70934 14579 ft 413 kts 87°
2026-05-07 18:39 29.96987 -94.67606 15223 ft 420 kts 87°
2026-05-07 18:39 29.97233 -94.64224 15860 ft 426 kts 87°
2026-05-07 18:40 29.97482 -94.60793 16459 ft 433 kts 88°
2026-05-07 18:40 29.97735 -94.57307 17069 ft 439 kts 88°
2026-05-07 18:40 29.97986 -94.53813 17621 ft 446 kts 88°
2026-05-07 18:40 29.98244 -94.50223 18194 ft 452 kts 88°
2026-05-07 18:41 29.98505 -94.46578 18723 ft 458 kts 88°
2026-05-07 18:41 29.98771 -94.42854 19251 ft 462 kts 88°
2026-05-07 18:41 29.99036 -94.39138 19761 ft 467 kts 88°
2026-05-07 18:41 29.99302 -94.35386 20259 ft 471 kts 88°
2026-05-07 18:42 29.99573 -94.31655 20734 ft 476 kts 87°
2026-05-07 18:42 29.99929 -94.27843 21237 ft 481 kts 85°
2026-05-07 18:42 30.00362 -94.23995 21738 ft 485 kts 84°
2026-05-07 18:42 30.00833 -94.20120 22259 ft 490 kts 84°
2026-05-07 18:43 30.01320 -94.16215 22753 ft 495 kts 83°
2026-05-07 18:43 30.01813 -94.12260 23275 ft 500 kts 84°
2026-05-07 18:43 30.02300 -94.08302 23758 ft 504 kts 84°
2026-05-07 18:43 30.02791 -94.04273 24211 ft 509 kts 84°
2026-05-07 18:44 30.03285 -94.00214 24688 ft 513 kts 84°
2026-05-07 18:44 30.03788 -93.96116 25159 ft 517 kts 84°
2026-05-07 18:44 30.04297 -93.91987 25679 ft 522 kts 84°
2026-05-07 18:44 30.04813 -93.87826 26148 ft 526 kts 84°
2026-05-07 18:45 30.05333 -93.83626 26617 ft 530 kts 84°
2026-05-07 18:45 30.05855 -93.79400 27077 ft 535 kts 84°
2026-05-07 18:45 30.06382 -93.75116 27510 ft 540 kts 84°
2026-05-07 18:45 30.06913 -93.70797 27937 ft 545 kts 84°
2026-05-07 18:46 30.07445 -93.66445 28389 ft 549 kts 84°
2026-05-07 18:46 30.07980 -93.62068 28830 ft 553 kts 84°
2026-05-07 18:46 30.08511 -93.57704 29254 ft 558 kts 84°
2026-05-07 18:46 30.09051 -93.53247 29685 ft 562 kts 84°
2026-05-07 18:47 30.09594 -93.48761 30093 ft 566 kts 84°
2026-05-07 18:47 30.10138 -93.44247 30437 ft 569 kts 84°
2026-05-07 18:47 30.10685 -93.39707 30897 ft 570 kts 84°
2026-05-07 18:47 30.11228 -93.35180 31367 ft 569 kts 84°
2026-05-07 18:48 30.11769 -93.30658 31836 ft 568 kts 84°
2026-05-07 18:48 30.12310 -93.26125 32296 ft 567 kts 84°
2026-05-07 18:48 30.12846 -93.21611 32748 ft 567 kts 84°
2026-05-07 18:48 30.13380 -93.17109 33187 ft 566 kts 84°
2026-05-07 18:49 30.13975 -93.12612 33621 ft 566 kts 81°
2026-05-07 18:49 30.14723 -93.08155 34034 ft 566 kts 79°
2026-05-07 18:49 30.15572 -93.03716 34371 ft 566 kts 78°
2026-05-07 18:49 30.16466 -92.99288 34684 ft 566 kts 77°
2026-05-07 18:50 30.17370 -92.94861 34995 ft 566 kts 77°
2026-05-07 18:50 30.18254 -92.90489 35303 ft 565 kts 78°
2026-05-07 18:50 30.19134 -92.86065 35592 ft 565 kts 78°
2026-05-07 18:50 30.20005 -92.81624 35883 ft 565 kts 78°
2026-05-07 18:51 30.20866 -92.77197 36168 ft 565 kts 78°
2026-05-07 18:51 30.21724 -92.72755 36436 ft 565 kts 78°
2026-05-07 18:51 30.22579 -92.68324 36705 ft 565 kts 78°
2026-05-07 18:51 30.23433 -92.63889 36958 ft 565 kts 78°
2026-05-07 18:52 30.24286 -92.59455 37027 ft 566 kts 78°
2026-05-07 18:52 30.25997 -92.50549 37043 ft 567 kts 78°
2026-05-07 18:53 30.27701 -92.41644 37044 ft 567 kts 78°
2026-05-07 18:53 30.29399 -92.32739 37043 ft 567 kts 78°
2026-05-07 18:54 30.31091 -92.23827 37043 ft 567 kts 78°
2026-05-07 18:54 30.32750 -92.14970 37047 ft 567 kts 79°
2026-05-07 18:55 30.34412 -92.06036 37049 ft 567 kts 79°
2026-05-07 18:55 30.36083 -91.97100 37048 ft 567 kts 78°
2026-05-07 18:56 30.37753 -91.88169 37045 ft 568 kts 78°
2026-05-07 18:56 30.39422 -91.79210 37050 ft 570 kts 78°
2026-05-07 18:57 30.41091 -91.70209 37041 ft 571 kts 79°
2026-05-07 18:57 30.42753 -91.61207 37041 ft 571 kts 79°
2026-05-07 18:58 30.44399 -91.52258 37043 ft 571 kts 78°
2026-05-07 18:58 30.46043 -91.43278 37040 ft 572 kts 79°
2026-05-07 18:59 30.47690 -91.34253 37042 ft 572 kts 79°
2026-05-07 18:59 30.49450 -91.25267 37048 ft 572 kts 76°
2026-05-07 19:00 30.51471 -91.16347 37044 ft 572 kts 75°
2026-05-07 19:00 30.53547 -91.07444 37044 ft 571 kts 75°
2026-05-07 19:01 30.55594 -90.98542 37044 ft 571 kts 75°
2026-05-07 19:01 30.57615 -90.89640 37031 ft 570 kts 75°
2026-05-07 19:02 30.59628 -90.80731 37032 ft 570 kts 75°
2026-05-07 19:02 30.61634 -90.71825 37026 ft 570 kts 75°
2026-05-07 19:03 30.63298 -90.64424 37027 ft 569 kts 75°
2026-05-07 19:03 30.65291 -90.55529 37026 ft 569 kts 75°
2026-05-07 19:04 30.67600 -90.45182 37026 ft 569 kts 76°
2026-05-07 19:04 30.69577 -90.36277 37023 ft 569 kts 76°
2026-05-07 19:05 30.71209 -90.28816 37029 ft 567 kts 76°
2026-05-07 19:05 30.73143 -90.19989 37028 ft 567 kts 76°
2026-05-07 19:06 30.75096 -90.11103 37036 ft 567 kts 76°
2026-05-07 19:06 30.78021 -89.97768 37035 ft 567 kts 76°
2026-05-07 19:07 30.79957 -89.88900 37044 ft 565 kts 76°
2026-05-07 19:07 30.81886 -89.80031 37045 ft 565 kts 76°
2026-05-07 19:08 30.83809 -89.71154 37043 ft 565 kts 76°
2026-05-07 19:08 30.85724 -89.62282 37041 ft 565 kts 76°
2026-05-07 19:09 30.87634 -89.53405 37033 ft 566 kts 76°
2026-05-07 19:09 30.89538 -89.44521 37032 ft 566 kts 76°
2026-05-07 19:10 30.91416 -89.35627 37030 ft 566 kts 76°
2026-05-07 19:10 30.93292 -89.26727 37030 ft 566 kts 76°
2026-05-07 19:11 30.95161 -89.17894 37028 ft 564 kts 76°
2026-05-07 19:11 30.97043 -89.08997 37034 ft 567 kts 76°
2026-05-07 19:12 30.98928 -89.00048 37024 ft 568 kts 76°
2026-05-07 19:12 31.01498 -88.91349 37021 ft 566 kts 62°
2026-05-07 19:13 31.05096 -88.83266 37020 ft 564 kts 58°
2026-05-07 19:13 31.08834 -88.75265 37024 ft 564 kts 59°
2026-05-07 19:14 31.12475 -88.67161 37023 ft 564 kts 60°
2026-05-07 19:14 31.16048 -88.59012 37017 ft 564 kts 60°
2026-05-07 19:15 31.19616 -88.50834 37019 ft 564 kts 60°
2026-05-07 19:15 31.23176 -88.42677 37018 ft 563 kts 60°
2026-05-07 19:16 31.26744 -88.34496 37019 ft 566 kts 60°
2026-05-07 19:16 31.30293 -88.26340 37017 ft 567 kts 60°
2026-05-07 19:17 31.33865 -88.18111 37021 ft 567 kts 60°
2026-05-07 19:17 31.37424 -88.09890 37015 ft 567 kts 60°
2026-05-07 19:18 31.40959 -88.01651 37017 ft 566 kts 60°
2026-05-07 19:18 31.44495 -87.93414 37014 ft 566 kts 60°
2026-05-07 19:19 31.48474 -87.85490 37011 ft 562 kts 52°
2026-05-07 19:19 31.53025 -87.78052 37020 ft 562 kts 49°
2026-05-07 19:20 31.57646 -87.70629 37001 ft 564 kts 50°
2026-05-07 19:20 31.62169 -87.63185 37010 ft 563 kts 50°
2026-05-07 19:21 31.66678 -87.55665 37008 ft 563 kts 51°
2026-05-07 19:21 31.71182 -87.48135 37007 ft 563 kts 51°
2026-05-07 19:22 31.75687 -87.40599 37010 ft 563 kts 51°
2026-05-07 19:22 31.80195 -87.33050 37007 ft 566 kts 50°
2026-05-07 19:23 31.84715 -87.25465 37006 ft 567 kts 51°
2026-05-07 19:23 31.89209 -87.17906 37002 ft 567 kts 51°
2026-05-07 19:24 31.93727 -87.10291 37003 ft 567 kts 51°
2026-05-07 19:24 31.98239 -87.02674 37000 ft 567 kts 51°
2026-05-07 19:25 32.02736 -86.95037 37005 ft 567 kts 51°
2026-05-07 19:25 32.07221 -86.87396 37004 ft 568 kts 51°
2026-05-07 19:26 32.11729 -86.79730 37003 ft 569 kts 51°
2026-05-07 19:26 32.16239 -86.72055 37000 ft 569 kts 51°
2026-05-07 19:27 32.20743 -86.64375 37000 ft 569 kts 51°
2026-05-07 19:27 32.25236 -86.56698 37002 ft 569 kts 51°
2026-05-07 19:28 32.29727 -86.49007 37009 ft 568 kts 51°
2026-05-07 19:28 32.34202 -86.41317 37007 ft 570 kts 51°
2026-05-07 19:29 32.38665 -86.33637 36969 ft 570 kts 51°
2026-05-07 19:29 32.43164 -86.25897 36968 ft 570 kts 51°
2026-05-07 19:30 32.47646 -86.18140 36980 ft 570 kts 51°
2026-05-07 19:30 32.52125 -86.10366 36970 ft 570 kts 51°
2026-05-07 19:31 32.54329 -86.06531 36971 ft 556 kts 51°
2026-05-07 19:31 32.56490 -86.02763 37007 ft 552 kts 51°
2026-05-07 19:31 32.60801 -85.95242 36981 ft 552 kts 51°
2026-05-07 19:32 32.65111 -85.87707 36976 ft 551 kts 51°
2026-05-07 19:32 32.69413 -85.80172 36976 ft 551 kts 51°
2026-05-07 19:33 32.71558 -85.76408 36763 ft 548 kts 51°
2026-05-07 19:33 32.73699 -85.72649 35733 ft 551 kts 51°
2026-05-07 19:33 32.75847 -85.68878 34781 ft 553 kts 51°
2026-05-07 19:33 32.78012 -85.65072 33798 ft 554 kts 51°
2026-05-07 19:34 32.80170 -85.61272 32713 ft 556 kts 51°
2026-05-07 19:34 32.82335 -85.57455 31668 ft 557 kts 51°
2026-05-07 19:34 32.84473 -85.53682 30604 ft 558 kts 51°
2026-05-07 19:34 32.86644 -85.49846 29477 ft 558 kts 51°
2026-05-07 19:35 32.88814 -85.46008 28224 ft 559 kts 51°
2026-05-07 19:35 32.90984 -85.42167 27140 ft 556 kts 51°
2026-05-07 19:35 32.93123 -85.38371 26260 ft 548 kts 51°
2026-05-07 19:35 32.95234 -85.34618 25408 ft 541 kts 51°
2026-05-07 19:36 32.97312 -85.30922 24593 ft 533 kts 51°
2026-05-07 19:36 32.99362 -85.27276 23813 ft 526 kts 51°
2026-05-07 19:36 33.01434 -85.23730 22898 ft 517 kts 47°
2026-05-07 19:36 33.03675 -85.20428 21978 ft 507 kts 43°
2026-05-07 19:37 33.06001 -85.17323 21084 ft 499 kts 40°
2026-05-07 19:37 33.08362 -85.14307 20194 ft 495 kts 39°
2026-05-07 19:37 33.10714 -85.11335 19378 ft 490 kts 39°
2026-05-07 19:37 33.13009 -85.08418 18607 ft 486 kts 39°
2026-05-07 19:38 33.15301 -85.05475 17786 ft 481 kts 39°
2026-05-07 19:38 33.17546 -85.02563 17073 ft 472 kts 39°
2026-05-07 19:38 33.19739 -84.99697 16391 ft 464 kts 39°
2026-05-07 19:38 33.21892 -84.96875 15707 ft 455 kts 39°
2026-05-07 19:39 33.24005 -84.94105 15054 ft 447 kts 39°
2026-05-07 19:39 33.26084 -84.91379 14423 ft 439 kts 39°
2026-05-07 19:39 33.28120 -84.88711 13802 ft 431 kts 39°
2026-05-07 19:39 33.30134 -84.86097 13200 ft 420 kts 38°
2026-05-07 19:40 33.32167 -84.83607 12876 ft 415 kts 37°
2026-05-07 19:40 33.34209 -84.81193 12608 ft 415 kts 36°
2026-05-07 19:40 33.36269 -84.78795 12356 ft 413 kts 37°
2026-05-07 19:40 33.38322 -84.76409 12132 ft 410 kts 37°
2026-05-07 19:41 33.40365 -84.74026 12040 ft 409 kts 37°
2026-05-07 19:41 33.42400 -84.71648 11993 ft 409 kts 37°
2026-05-07 19:41 33.44429 -84.69269 11993 ft 408 kts 37°
2026-05-07 19:41 33.46457 -84.66888 11989 ft 409 kts 37°
2026-05-07 19:42 33.48490 -84.64500 11982 ft 410 kts 37°
2026-05-07 19:42 33.50525 -84.62099 11972 ft 410 kts 38°
2026-05-07 19:42 33.52411 -84.59499 11965 ft 418 kts 50°
2026-05-07 19:42 33.53687 -84.56333 11968 ft 428 kts 71°
2026-05-07 19:43 33.54146 -84.52793 11980 ft 433 kts 86°
2026-05-07 19:43 33.54162 -84.49233 11990 ft 434 kts 91°
2026-05-07 19:43 33.54037 -84.45644 11982 ft 434 kts 92°
2026-05-07 19:43 33.53903 -84.42032 11984 ft 434 kts 92°
2026-05-07 19:44 33.53807 -84.38416 11992 ft 433 kts 91°
2026-05-07 19:44 33.53753 -84.34807 11999 ft 433 kts 90°
2026-05-07 19:44 33.53728 -84.31195 11997 ft 433 kts 89°
2026-05-07 19:44 33.53721 -84.27589 11863 ft 429 kts 89°
2026-05-07 19:45 33.53723 -84.24022 11089 ft 426 kts 89°
2026-05-07 19:45 33.53728 -84.20501 10513 ft 418 kts 90°
2026-05-07 19:45 33.53733 -84.17050 10056 ft 408 kts 90°
2026-05-07 19:45 33.53737 -84.13731 9932 ft 388 kts 90°
2026-05-07 19:46 33.53740 -84.10573 9777 ft 370 kts 90°
2026-05-07 19:46 33.53743 -84.07549 9645 ft 355 kts 90°
2026-05-07 19:46 33.53747 -84.04648 9514 ft 338 kts 90°
2026-05-07 19:46 33.53775 -84.01907 8896 ft 324 kts 86°
2026-05-07 19:47 33.54299 -83.99336 8072 ft 314 kts 60°
2026-05-07 19:47 33.55576 -83.97311 7295 ft 299 kts 34°
2026-05-07 19:47 33.57352 -83.96253 6511 ft 278 kts
2026-05-07 19:47 33.59212 -83.96345 5734 ft 262 kts 341°
2026-05-07 19:48 33.60876 -83.97048 5161 ft 251 kts 329°
2026-05-07 19:48 33.62351 -83.98158 4795 ft 250 kts 317°
2026-05-07 19:48 33.63537 -83.99633 4402 ft 244 kts 298°
2026-05-07 19:48 33.63968 -84.01536 4077 ft 237 kts 269°
2026-05-07 19:49 33.63801 -84.03513 4004 ft 239 kts 263°
2026-05-07 19:49 33.63584 -84.05490 3990 ft 240 kts 264°
2026-05-07 19:49 33.63412 -84.07478 3990 ft 239 kts 266°
2026-05-07 19:49 33.63282 -84.09468 3992 ft 238 kts 267°
2026-05-07 19:50 33.63191 -84.11458 3995 ft 239 kts 269°
2026-05-07 19:50 33.63167 -84.13368 3973 ft 213 kts 270°
2026-05-07 19:50 33.63164 -84.15005 3963 ft 183 kts 271°
2026-05-07 19:50 33.63163 -84.16485 3964 ft 174 kts 271°
2026-05-07 19:51 33.63163 -84.17935 4005 ft 173 kts 271°
2026-05-07 19:51 33.63163 -84.18891 3988 ft 173 kts 270°
2026-05-07 19:51 33.63163 -84.20329 4008 ft 172 kts 270°
2026-05-07 19:51 33.63164 -84.21760 4005 ft 171 kts 270°
2026-05-07 19:52 33.63165 -84.23193 3995 ft 172 kts 270°
2026-05-07 19:52 33.63165 -84.24629 3779 ft 170 kts 270°
2026-05-07 19:52 33.63166 -84.25985 3530 ft 152 kts 270°
2026-05-07 19:52 33.63166 -84.27217 3359 ft 145 kts 270°
2026-05-07 19:53 33.63167 -84.28417 3181 ft 144 kts 271°
2026-05-07 19:53 33.63169 -84.29616 2957 ft 146 kts 272°
2026-05-07 19:53 33.63170 -84.30847 2836 ft 149 kts 271°
2026-05-07 19:53 33.63170 -84.32080 2628 ft 147 kts 272°
2026-05-07 19:54 33.63172 -84.33306 2421 ft 148 kts 272°
2026-05-07 19:54 33.63173 -84.34546 2235 ft 149 kts 272°
2026-05-07 19:54 33.63173 -84.35786 2039 ft 148 kts 273°
2026-05-07 19:54 33.63175 -84.37014 1834 ft 147 kts 274°
2026-05-07 19:55 33.63175 -84.38253 1640 ft 150 kts 275°
2026-05-07 19:55 33.63176 -84.39494 1461 ft 148 kts 274°
2026-05-07 19:55 33.63176 -84.40703 1223 ft 144 kts 274°
2026-05-07 19:55 33.63177 -84.41913 1033 ft 146 kts 275°
2026-05-07 19:56 33.63183 -84.42961 1015 ft 98 kts 269°
2026-05-07 19:56 33.63185 -84.43545 1015 ft 47 kts 270°
2026-05-07 19:56 33.63184 -84.43919 1012 ft 43 kts 270°
2026-05-07 19:56 33.63161 -84.44144 1012 ft 14 kts 223°
2026-05-07 19:57 33.63093 -84.44141 1012 ft 8 kts 142°
2026-05-07 19:57 33.63074 -84.44064 1013 ft 14 kts 92°
2026-05-07 19:57 33.63072 -84.43923 1013 ft 20 kts 91°
2026-05-07 19:57 33.63071 -84.43741 1013 ft 24 kts 89°
2026-05-07 19:58 33.63074 -84.43521 1014 ft 29 kts 90°
2026-05-07 19:58 33.63073 -84.43273 1015 ft 30 kts 90°
2026-05-07 19:58 33.63072 -84.43032 1014 ft 28 kts 90°
2026-05-07 19:58 33.63038 -84.42923 1014 ft 7 kts 170°
2026-05-07 19:59 33.62994 -84.42919 1014 ft 6 kts 165°
2026-05-07 19:59 33.62946 -84.42869 1014 ft 12 kts 144°
2026-05-07 19:59 33.62858 -84.42852 1014 ft 12 kts 177°
2026-05-07 19:59 33.62782 -84.42853 1014 ft 10 kts 180°
2026-05-07 20:00 33.62747 -84.42824 1014 ft 4 kts 114°
2026-05-07 20:00 33.62742 -84.42787 1014 ft 4 kts 93°
2026-05-07 20:00 33.62742 -84.42762 1014 ft 2 kts 90°
2026-05-07 20:00 33.62742 -84.42756 1014 ft 0 kts 90°